Terug naar catalogus

ONEWEB-0218

ActiefCommunicatiePO
NORAD 48214·PAYLOAD·🇬🇧 United Kingdom

Gelanceerd Apr 25, 2021 vanaf Vostochny Cosmodrome

Loading…

Volgende Passages (komende 24 uur)

TLE

VersSource: CelesTrak SupGP

Epoch: Sep 14, 2026, 13:25 UTC

1 48214C 21031E   26257.55956433 -.00000848  00000+0 -22891-2 0  2570
2 48214  87.8902 271.8789 0001520  69.7683  30.2070 13.14504126    14

Volg ONEWEB-0218 in realtime met AllMySat

Download on the App Store